Location: Unspecified
(0.0000°N, 0.0000°E)
Time: 18:50:15
(UTC+00:00)

Courier 1B - Pass Details

Date: 28 November 2019
Orbit: 963 x 1209 km, 28.3° (Epoch: 06 December)

Event Time Altitude Azimuth Distance (km) Brightness Sun altitude
Rises 11:25:38 0° 281° (W) 3,659 10.4 68.0°
Reaches altitude 10° 11:28:33 10° 272° (W) 2,696 9.9 68.2°
Maximum altitude 11:34:19 34° 209° (SSW) 1,530 9.5 68.4°
Drops below altitude 10° 11:40:07 10° 145° (SE) 2,705 10.3 68.6°
Sets 11:43:04 0° 136° (SE) 3,672 10.7 68.7°
